Location: Glenmont
(42.6048°N, 73.7696°W)
Time: 06:59:28
(UTC+00:00)

Meteor PRIRODA - Pass Details

Date: 08 September 2024
Orbit: 422 x 434 km, 97.5° (Epoch: 12 October)

Event Time Altitude Azimuth Distance (km) Brightness Sun altitude
Rises 22:15:39 0° 74° (ENE) 2,421 6.5 10.3°
Enters shadow 23:19:24 -56° 165° (SSE) 11,046 10.3 -1.4°
Maximum altitude 23:48:41 39° 73° (ENE) 669 3.9 -6.7°
